Flag for U.S.A. Weather past 2 weeks in Marengo, Indiana, U.S.A.

Now
59 °F

Overcast.


Feels Like: 55 °F
Forecast: 35 / 48 °F
Wind: 22 mph from West

Location: Bowling Green-Warren County Regional Airport

Current Time: Jan 29, 2015 at 1:32:53 PM

Latest Report: Jan 29, 2015 at 12:53 PM


Visibility: 10 mi

Pressure: 30.00 "Hg

Humidity: 51%

Dew point: 41 °F

Location of MarengoLocation

Historic Weather in Marengo — Graph

°F

Marengo temperature yesterday

Maximum temperature yesterday: 46 °F (at 3:53 PM)
Minimum temperature yesterday: 24 °F (at 7:53 AM)
Average temperature yesterday: 35 °F

Past Weeks' High & Low Weather Summary

 TemperatureHumidityPressure
High61 °F (Jan 19, 3:53 PM)93% (Jan 25, 11:53 PM)30.44 "Hg (Jan 25, 11:53 PM)
Low23 °F (Jan 16, 7:53 AM)28% (Jan 18, 3:53 PM)29.61 "Hg (Jan 25, 3:53 PM)
Average38 °F69%30.08 "Hg
* Reported Jan 14 11:53 AM — Jan 29 11:53 AM, Marengo, Weather by CustomWeather, © 2014

Note: Actual official high and low records may vary slightly from our data, if they occured in-between our weather recording intervals... More about our weather records

Advertising

Marengo weather history for previous 24 hours

 ConditionsComfort  
Time TempWeatherWind HumidityBarometerVisibility
11:53 AM
Jan 29
59 °FOvercast.17 mph48%30.00 "Hg10 mi
10:53 AM57 °FSunny.21 mph47%29.99 "Hg10 mi
9:53 AM53 °FSunny.17 mph51%29.98 "Hg10 mi
8:53 AM49 °FSunny.15 mph57%29.99 "Hg10 mi
7:53 AM47 °FOvercast.17 mph59%29.98 "Hg10 mi
6:53 AM47 °FOvercast.21 mph56%29.97 "Hg10 mi
5:53 AM46 °FLight rain. Overcast.18 mph56%30.01 "Hg10 mi
4:53 AM47 °FOvercast.17 mph44%30.01 "Hg10 mi
3:53 AM46 °FPassing clouds.14 mph46%30.05 "Hg10 mi
2:53 AM46 °FClear.17 mph44%30.06 "Hg10 mi
1:53 AM45 °FClear.16 mph48%30.08 "Hg10 mi
12:53 AM34 °FClear.No wind64%30.10 "Hg10 mi
11:53 PM
Jan 28
32 °FClear.3 mph73%30.14 "Hg10 mi
10:53 PM35 °FClear.No wind59%30.16 "Hg10 mi
9:53 PM35 °FClear.3 mph59%30.14 "Hg10 mi
8:53 PM35 °FClear.7 mph59%30.17 "Hg10 mi
7:53 PM35 °FClear.5 mph61%30.21 "Hg10 mi
6:53 PM38 °FClear.5 mph51%30.22 "Hg10 mi
5:53 PM42 °FClear.7 mph43%30.22 "Hg10 mi
4:53 PM46 °FSunny.7 mph34%30.23 "Hg10 mi
3:53 PM46 °FSunny.9 mph33%30.25 "Hg10 mi
2:53 PM45 °FSunny.6 mph33%30.27 "Hg10 mi
1:53 PM41 °FSunny.5 mph35%30.30 "Hg10 mi
Weather by CustomWeather, © 2014

See weather overviewHow to use our weather pages